When you browse on this site, cookies collect data to enhance your experience and personalize the content and advertising you see.
Visit our Privacy Policy to learn more. By continuing to use the site, you agree to this use of cookies and data.
  • Em Portugal
  • Lista de países
  • Para 7 dias
  • Temperatura da água
  • Mapas de satélite
  • Mapa do tempo
  • Widgets de tempo
  • user-avatar
    Iniciar Sessão

    Previsão horária em Kyrova

    Hoje, 22 Julho, Segunda-feira

    Tempo Temperatura Precipitação Vento Pressão Humidade
    00:00 +14°C° 0 mm 0 m/s 738 mmHg 94%
    01:00 +13°C° 0 mm 0 m/s 738 mmHg 95%
    02:00 +13°C° 0 mm 0 m/s 738 mmHg 96%
    03:00 +13°C° 0 mm 0 m/s 738 mmHg 96%
    04:00 +12°C° 0 mm 0 m/s 738 mmHg 97%
    05:00 +14°C° 0 mm 0 m/s 738 mmHg 96%
    06:00 +15°C° 0 mm 0 m/s 738 mmHg 95%
    07:00 +16°C° 0 mm 0 m/s 738 mmHg 94%
    08:00 +19°C° 0 mm 1 m/s 738 mmHg 85%
    09:00 +21°C° 0 mm 1 m/s 738 mmHg 76%
    10:00 +21°C° 0 mm 2 m/s 737 mmHg 68%
    11:00 +23°C° 0.5 mm 2 m/s 737 mmHg 70%
    12:00 +23°C° 0.5 mm 2 m/s 737 mmHg 72%
    13:00 +23°C° 0.5 mm 2 m/s 737 mmHg 74%
    14:00 +23°C° 0.6 mm 2 m/s 737 mmHg 76%
    15:00 +23°C° 0.6 mm 2 m/s 737 mmHg 79%
    16:00 +23°C° 0.6 mm 1 m/s 737 mmHg 81%
    17:00 +22°C° 0.2 mm 1 m/s 737 mmHg 84%
    18:00 +21°C° 0.2 mm 1 m/s 737 mmHg 87%
    19:00 +19°C° 0.2 mm 0 m/s 737 mmHg 89%
    20:00 +18°C° 0 mm 0 m/s 737 mmHg 90%
    21:00 +16°C° 0 mm 0 m/s 737 mmHg 91%
    22:00 +15°C° 0 mm 0 m/s 737 mmHg 92%
    23:00 +15°C° 0 mm 0 m/s 736 mmHg 93%

    Amanhã, 23 Julho, Terça-feira

    Tempo Temperatura Precipitação Vento Pressão Humidade
    00:00 +14°C° 0 mm 0 m/s 736 mmHg 93%
    01:00 +14°C° 0 mm 0 m/s 736 mmHg 94%
    02:00 +14°C° 0 mm 0 m/s 737 mmHg 94%
    03:00 +14°C° 0 mm 0 m/s 737 mmHg 94%
    04:00 +13°C° 0 mm 0 m/s 737 mmHg 95%
    05:00 +14°C° 0 mm 0 m/s 737 mmHg 94%
    06:00 +15°C° 0 mm 0 m/s 737 mmHg 93%
    07:00 +16°C° 0 mm 0 m/s 737 mmHg 91%
    08:00 +19°C° 0.4 mm 1 m/s 737 mmHg 90%
    09:00 +19°C° 0.4 mm 2 m/s 737 mmHg 88%
    10:00 +19°C° 0.4 mm 2 m/s 738 mmHg 86%
    11:00 +20°C° 0.1 mm 2 m/s 738 mmHg 80%
    12:00 +21°C° 0.1 mm 2 m/s 738 mmHg 73%
    13:00 +24°C° 0.1 mm 3 m/s 738 mmHg 66%
    14:00 +24°C° 0.7 mm 2 m/s 738 mmHg 72%
    15:00 +23°C° 0.7 mm 2 m/s 739 mmHg 77%
    16:00 +23°C° 0.7 mm 1 m/s 739 mmHg 83%
    17:00 +23°C° 0.4 mm 1 m/s 739 mmHg 84%
    18:00 +22°C° 0.4 mm 1 m/s 739 mmHg 86%
    19:00 +22°C° 0.4 mm 1 m/s 740 mmHg 87%
    20:00 +20°C° 0 mm 1 m/s 740 mmHg 88%
    21:00 +19°C° 0 mm 1 m/s 740 mmHg 90%
    22:00 +16°C° 0 mm 1 m/s 740 mmHg 91%
    23:00 +16°C° 0 mm 1 m/s 740 mmHg 91%

    Depois de amanhã, 24 Julho, Quarta-feira

    Tempo Temperatura Precipitação Vento Pressão Humidade
    00:00 +15°C° 0 mm 1 m/s 741 mmHg 91%
    01:00 +15°C° 0 mm 1 m/s 741 mmHg 91%
    02:00 +14°C° 0 mm 1 m/s 741 mmHg 90%
    03:00 +14°C° 0 mm 1 m/s 741 mmHg 89%
    04:00 +13°C° 0 mm 0 m/s 742 mmHg 89%
    05:00 +14°C° 0 mm 0 m/s 742 mmHg 87%
    06:00 +16°C° 0 mm 0 m/s 742 mmHg 85%
    07:00 +18°C° 0 mm 0 m/s 742 mmHg 82%
    08:00 +20°C° 0 mm 0 m/s 743 mmHg 71%
    09:00 +24°C° 0 mm 1 m/s 743 mmHg 60%
    10:00 +26°C° 0 mm 1 m/s 743 mmHg 49%
    11:00 +27°C° 0 mm 1 m/s 743 mmHg 45%
    12:00 +28°C° 0 mm 1 m/s 743 mmHg 41%
    13:00 +29°C° 0 mm 1 m/s 743 mmHg 38%
    14:00 +28°C° 0 mm 1 m/s 743 mmHg 43%
    15:00 +27°C° 0 mm 1 m/s 743 mmHg 47%
    16:00 +26°C° 0 mm 1 m/s 743 mmHg 52%
    17:00 +25°C° 0 mm 1 m/s 743 mmHg 58%
    18:00 +24°C° 0 mm 1 m/s 743 mmHg 63%
    19:00 +23°C° 0 mm 1 m/s 743 mmHg 68%
    20:00 +22°C° 0 mm 1 m/s 743 mmHg 71%
    21:00 +18°C° 0 mm 0 m/s 743 mmHg 75%
    22:00 +17°C° 0 mm 0 m/s 743 mmHg 78%
    23:00 +17°C° 0 mm 0 m/s 743 mmHg 78%

    25 Julho, Quinta-feira

    Tempo Temperatura Precipitação Vento Pressão Humidade
    00:00 +17°C° 0 mm 0 m/s 744 mmHg 77%
    01:00 +17°C° 0 mm 0 m/s 744 mmHg 76%
    02:00 +17°C° 0 mm 0 m/s 744 mmHg 77%
    03:00 +16°C° 0 mm 0 m/s 744 mmHg 77%
    04:00 +16°C° 0 mm 0 m/s 744 mmHg 77%
    05:00 +17°C° 0 mm 0 m/s 744 mmHg 75%
    06:00 +18°C° 0 mm 0 m/s 744 mmHg 73%
    07:00 +19°C° 0 mm 0 m/s 744 mmHg 72%
    08:00 +21°C° 0 mm 0 m/s 744 mmHg 65%
    09:00 +24°C° 0 mm 1 m/s 744 mmHg 58%
    10:00 +26°C° 0 mm 1 m/s 744 mmHg 52%
    11:00 +27°C° 0 mm 1 m/s 744 mmHg 48%
    12:00 +27°C° 0 mm 1 m/s 744 mmHg 43%
    13:00 +28°C° 0 mm 2 m/s 743 mmHg 39%
    14:00 +28°C° 0 mm 2 m/s 743 mmHg 41%
    15:00 +27°C° 0 mm 2 m/s 743 mmHg 44%
    16:00 +27°C° 0 mm 2 m/s 743 mmHg 46%
    17:00 +26°C° 0 mm 1 m/s 742 mmHg 54%
    18:00 +25°C° 0 mm 1 m/s 742 mmHg 62%
    19:00 +21°C° 0 mm 0 m/s 742 mmHg 69%
    20:00 +22°C° 0 mm 1 m/s 741 mmHg 71%
    21:00 +20°C° 0 mm 1 m/s 741 mmHg 73%
    22:00 +19°C° 0 mm 1 m/s 741 mmHg 75%
    23:00 +18°C° 0 mm 1 m/s 741 mmHg 77%

    26 Julho, Sexta-feira

    Tempo Temperatura Precipitação Vento Pressão Humidade
    00:00 +18°C° 0 mm 1 m/s 741 mmHg 79%
    01:00 +16°C° 0 mm 1 m/s 740 mmHg 81%
    02:00 +16°C° 0.1 mm 1 m/s 740 mmHg 84%
    03:00 +16°C° 0.1 mm 1 m/s 740 mmHg 86%
    04:00 +16°C° 0.1 mm 1 m/s 739 mmHg 89%
    05:00 +18°C° 1.1 mm 1 m/s 739 mmHg 91%
    06:00 +18°C° 1.1 mm 1 m/s 739 mmHg 94%
    07:00 +17°C° 1.1 mm 2 m/s 739 mmHg 97%
    08:00 +18°C° 0.4 mm 2 m/s 739 mmHg 96%
    09:00 +18°C° 0.4 mm 2 m/s 738 mmHg 95%
    10:00 +19°C° 0.4 mm 2 m/s 738 mmHg 94%
    11:00 +19°C° 0.4 mm 2 m/s 738 mmHg 93%
    12:00 +19°C° 0.4 mm 2 m/s 738 mmHg 91%
    13:00 +19°C° 0.4 mm 2 m/s 738 mmHg 90%
    14:00 +20°C° 1 mm 2 m/s 737 mmHg 90%
    15:00 +20°C° 1 mm 2 m/s 737 mmHg 91%
    16:00 +20°C° 1 mm 2 m/s 736 mmHg 91%
    17:00 +19°C° 0.7 mm 2 m/s 736 mmHg 92%
    18:00 +19°C° 0.7 mm 2 m/s 736 mmHg 93%
    19:00 +19°C° 0.7 mm 2 m/s 736 mmHg 94%
    20:00 +18°C° 0.4 mm 2 m/s 735 mmHg 95%
    21:00 +18°C° 0.4 mm 1 m/s 735 mmHg 97%
    22:00 +16°C° 0.4 mm 1 m/s 735 mmHg 98%
    23:00 +15°C° 0 mm 1 m/s 735 mmHg 98%

    27 Julho, Sábado

    Tempo Temperatura Precipitação Vento Pressão Humidade
    00:00 +15°C° 0 mm 2 m/s 735 mmHg 99%
    01:00 +15°C° 0 mm 2 m/s 735 mmHg 99%
    02:00 +15°C° 0 mm 2 m/s 734 mmHg 98%
    03:00 +15°C° 0 mm 2 m/s 734 mmHg 98%
    04:00 +13°C° 0 mm 3 m/s 734 mmHg 98%
    05:00 +13°C° 0 mm 3 m/s 734 mmHg 97%
    06:00 +13°C° 0 mm 3 m/s 734 mmHg 97%
    07:00 +13°C° 0 mm 3 m/s 734 mmHg 97%
    08:00 +13°C° 0 mm 3 m/s 734 mmHg 96%
    09:00 +13°C° 0 mm 3 m/s 734 mmHg 95%
    10:00 +13°C° 0 mm 3 m/s 734 mmHg 94%
    11:00 +13°C° 0 mm 3 m/s 734 mmHg 91%
    12:00 +14°C° 0 mm 3 m/s 734 mmHg 88%
    13:00 +14°C° 0 mm 4 m/s 734 mmHg 85%
    14:00 +14°C° 0 mm 4 m/s 733 mmHg 82%
    15:00 +15°C° 0 mm 4 m/s 733 mmHg 78%
    16:00 +15°C° 0 mm 4 m/s 733 mmHg 75%
    17:00 +16°C° 0 mm 3 m/s 733 mmHg 77%
    18:00 +14°C° 0 mm 3 m/s 733 mmHg 79%
    19:00 +14°C° 0 mm 3 m/s 733 mmHg 80%
    20:00 +13°C° 0 mm 3 m/s 732 mmHg 82%
    21:00 +12°C° 0 mm 3 m/s 732 mmHg 85%
    22:00 +11°C° 0 mm 3 m/s 732 mmHg 87%
    23:00 +12°C° 0 mm 2 m/s 732 mmHg 87%
    Mostrar mais